CZ-3C R/B

Last updated on June 17, 2019, 12:02 a.m. UTC

1 44232U 19027B   19166.84267784  .00004046  00000-0  46031-3 0  9994
2 44232  19.4610  98.7748 7222763 201.1205  98.5655  2.37653736   719
UTC
Height (km)
Latitude
Longitude
Inclination
Orbital Period
UTC large
Height (km)
Speed (km/s)
/
Latitude / Longitude
Inclination (degrees)
Orbital Period (minutes)
Azimuth
Elevation
Range (km)
Doppler Factor
iOS Compass Heading
iOS Angle

Next 30 passes for location: Hong Kong

Rise time Rise Azimuth (degrees) Set time Set Azimuth (degrees) Duration Max altitude (degrees)

No matching passes for this satellites